Weather History for Sheridan, WY

Change the Weather History Date:

Tuesday, July 23, 2013

  Actual Average Record
Temperature  
Mean Temperature 73 °F 71 °F  
Max Temperature 92 °F 89 °F 103 °F (1931)
Min Temperature 54 °F 54 °F 42 °F (1911)
Degree Days  
Heating Degree Days 0 0  
Month to date heating degree days 0 24  
Since 1 June heating degree days 120 173  
Since 1 July heating degree days 0 24  
Cooling Degree Days 8 7  
Month to date cooling degree days 186 128  
Year to date cooling degree days 242 178  
Since 1 June cooling degree days 234 174  
Growing Degree Days 22 (Base 50)    
Moisture  
Dew Point 46 °F    
Average Humidity 46    
Maximum Humidity 77    
Minimum Humidity 14    
Precipitation  
Precipitation 0.00 in 0.04 in 2.55 in (1923)
Month to date precipitation 0.37 0.91  
Year to date precipitation 9.88 9.06  
Sea Level Pressure  
Sea Level Pressure 29.95 in    
Wind  
Wind Speed 5 mph (North)    
Max Wind Speed 15 mph    
Max Gust Speed 21 mph    
Visibility 10 miles    
Events      
T = Trace of Precipitation, MM = Missing Value Source: NWS Daily Summary

Daily Weather History Graph

Daily Weather History Graph

Search for Another Location

Airport:

Trip Planner

Search our weather history database for the weather conditions in past years. The results will help you decide how hot, cold, wet, or windy it might be!

Date:

Astronomy

Jul. 23, 2013 Rise Set
Actual Time 5:44 AM MDT 8:43 PM MDT
Civil Twilight 5:09 AM MDT 9:18 PM MDT
Nautical Twilight 4:25 AM MDT 10:02 PM MDT
Astronomical Twilight 3:32 AM MDT 10:54 PM MDT
Moon 9:06 PM MDT (7/23) 7:02 AM MDT (7/23)
Length of Visible Light 16h 08m
Length of Day
14h 59m
Full, 99% of the Moon is Illuminated
Jul 23
Full
Jul 29
Last Quarter
Aug 6
New
Aug 14
First Quarter
Aug 20
Full

Hourly Weather History & Observations

Time (MDT) Temp. Dew Point Humidity Pressure Visibility Wind Dir Wind Speed Gust Speed Precip Events Conditions
12:53 AM 70.0 °F 44.1 °F 39% 29.86 in 10.0 mi North 5.8 mph - N/A   Clear
1:53 AM 69.1 °F 46.9 °F 45% 29.87 in 10.0 mi NW 10.4 mph - N/A   Clear
2:53 AM 66.9 °F 48.0 °F 51% 29.88 in 10.0 mi NNW 9.2 mph - N/A   Clear
3:53 AM 61.0 °F 48.9 °F 64% 29.90 in 10.0 mi Calm Calm - N/A   Clear
4:53 AM 57.0 °F 48.9 °F 74% 29.91 in 10.0 mi Calm Calm - N/A   Clear
5:53 AM 55.9 °F 48.9 °F 77% 29.92 in 10.0 mi Calm Calm - N/A   Clear
6:53 AM 60.1 °F 51.1 °F 72% 29.93 in 10.0 mi Calm Calm - N/A   Clear
7:53 AM 69.1 °F 53.1 °F 57% 29.94 in 10.0 mi Calm Calm - N/A   Clear
8:53 AM 75.0 °F 48.0 °F 38% 29.97 in 10.0 mi NNW 10.4 mph - N/A   Clear
9:53 AM 77.0 °F 50.0 °F 39% 29.99 in 10.0 mi North 6.9 mph - N/A   Clear
10:53 AM 81.0 °F 52.0 °F 36% 29.98 in 10.0 mi Variable 5.8 mph - N/A   Clear
11:53 AM 84.9 °F 48.9 °F 29% 29.96 in 10.0 mi Variable 3.5 mph - N/A   Clear
12:53 PM 86.0 °F 46.0 °F 25% 29.96 in 10.0 mi Variable 3.5 mph - N/A   Clear
1:53 PM 89.1 °F 39.9 °F 18% 29.94 in 10.0 mi North 6.9 mph - N/A   Clear
2:53 PM 91.0 °F 39.9 °F 17% 29.94 in 10.0 mi NNE 6.9 mph - N/A   Clear
3:53 PM 91.0 °F 36.0 °F 14% 29.94 in 10.0 mi NNW 13.8 mph 18.4 mph N/A   Clear
4:53 PM 91.0 °F 37.9 °F 15% 29.94 in 10.0 mi North 8.1 mph - N/A   Clear
5:53 PM 89.1 °F 39.9 °F 18% 29.95 in 10.0 mi NNW 10.4 mph - N/A   Clear
6:53 PM 87.1 °F 36.0 °F 16% 29.95 in 10.0 mi North 6.9 mph - N/A   Clear
7:53 PM 81.0 °F 42.1 °F 25% 29.96 in 10.0 mi North 5.8 mph - N/A   Clear
8:53 PM 73.9 °F 43.0 °F 33% 29.98 in 10.0 mi North 5.8 mph - N/A   Clear
9:53 PM 69.1 °F 46.9 °F 45% 30.02 in 10.0 mi Calm Calm - N/A   Clear
10:53 PM 66.0 °F 48.0 °F 52% 30.05 in 10.0 mi Calm Calm - N/A   Clear
11:53 PM 66.0 °F 48.9 °F 54% 30.06 in 10.0 mi Calm Calm - N/A   Clear